RH
100 100 100 100 100 100 88 89 80 90 76 100 100 100 100 100 100 100 100 79 73 68 76 80 68 58 59 62 63 64 62 65 84 88 78 59 51 48 49 51 51 52 53 54
100 100 100 100 100 100 100 100 98 100 94 100 100 100 89 100 100 80 76 81 80 75 62 57 60 64 66 70 74 79 86 94 88 70 55 49 50 48 46 50 53 56 60 60
86 86 86 66 90 98 100 100 100 100 100 100 100 100 96 84 68 66 72 62 62 65 71 72 66 63 62 59 54 58 63 66 61 54 53 56 59 62 63 63 63 65 65 61
78 99 83 71 93 92 85 90 100 100 100 100 100 100 100 79 69 90 80 70 62 63 61 59 57 55 49 48 47 45 47 51 53 53 52 50 49 50 48 45 43 42 42 42
99 81 67 84 100 100 100 100 100 99 100 100 100 99 99 100 100 97 84 76 82 75 78 68 68 64 64 59 56 50 52 54 53 50 49 52 54 50 47 42 40 39 39 40
95 82 71 86 100 97 91 76 100 100 100 100 100 99 100 100 100 100 100 100 100 94 83 88 88 79 73 73 67 64 62 66 67 66 62 59 62 68 64 63 60 56 52 50
83 91 72 84 80 73 50 48 60 72 93 90 88 87 96 96 100 100 98 88 88 87 84 76 73 68 68 68 67 70 73 78 83 89 91 87 87 79 77 75 70 70 65 63
87 76 52 89 65 66 41 54 84 70 57 78 96 88 80 74 80 79 78 78 76 78 84 84 84 83 82 73 72 73 78 80 81 82 85 78 76 75 68 64 63 62 59 53
100 91 80 77 73 80 74 73 91 84 88 96 91 89 87 91 94 99 100 99 94 91 85 84 80 81 82 80 87 91 90 88 84 77 72 70 70 68 65 62 56 61 65 69
100 85 93 93 85 80 77 76 83 82 73 72 80 87 88 93 100 99 99 100 100 100 98 98 100 99 96 88 86 82 79 82 81 75 70 68 67 72 74 78 69 62 69 72
100 91 93 100 100 100 99 95 84 79 72 74 85 92 93 91 92 96 99 100 100 100 100 100 100 100 100 100 96 84 79 80 81 80 74 71 68 68 79 80 71 73 73 68
85 85 96 100 100 100 95 87 78 81 87 94 98 91 86 94 99 100 100 100 99 99 100 100 100 100 100 100 100 97 92 90 92 98 97 93 86 80 79 83 81 73 65 60
76 70 69 71 73 80 82 84 95 100 100 100 100 100 98 92 84 82 89 95 99 100 98 98 100 100 100 100 100 100 100 98 94 95 100 100 97 92 76 64 57 56 54 48
73 77 74 71 64 61 65 63 64 66 71 75 77 75 82 88 91 86 80 78 83 86 92 96 98 98 96 97 96 89 80 78 77 73 68 61 55 51 45 37 31 31 27 21
53 57 58 56 50 52 54 56 54 54 51 51 55 60 61 61 61 63 68 74 77 77 77 75 72 67 67 67 71 62 48 49 49 45 42 38 32 28 26 24 21 16 13 14
28 28 28 31 36 36 35 32 32 30 28 27 26 26 26 27 29 32 32 36 38 42 46 48 47 49 46 43 40 44 42 38 37 31 27 30 27 25 22 21 18 15 15 16
18 20 22 22 20 21 22 21 22 23 23 22 19 17 16 14 15 17 21 23 23 22 20 19 19 20 20 22 23 22 25 24 25 24 22 23 22 20 17 14 14 14 13 14
11 11 11 12 13 13 14 14 15 16 15 15 16 15 15 16 15 13 12 11 11 13 13 13 14 15 15 16 17 18 18 20 20 20 19 18 18 16 15 14 14 13 14 14
9 9 9 8 8 8 8 9 9 9 9 9 10 10 11 11 12 12 12 13 12 12 12 11 10 10 10 11 11 11 11 11 12 12 12 13 13 12 11 11 10 10 10 8
9 9 9 8 8 8 8 8 8 8 7 7 8 8 8 8 9 9 10 10 10 10 10 10 10 9 9 9 10 10 9 9 8 8 8 8 8 7 7 7 7 7 7 7
7 7 7 7 7 7 7 6 6 6 6 6 6 6 6 6 6 6 6 7 7 7 8 8 8 8 8 8 8 7 7 7 7 7 7 6 7 7 6 6 6 6 6 6
7 7 7 6 6 6 6 6 6 6 5 6 5 5 5 5 6 6 5 5 5 6 6 6 6 6 6 6 5 5 4 5 5 5 5 5 5 5 5 5 5 4 4 4
5 6 6 6 6 6 6 5 5 5 4 4 4 4 5 5 5 5 5 5 5 5 6 6 6 6 5 5 5 4 4 4 4 4 4 4 4 4 4 4 4 4 4 4
4 4 4 4 4 5 5 4 4 4 4 4 4 4 4 4 4 5 5 5 4 5 5 5 5 5 5 4 4 4 4 4 4 4 5 4 4 4 4 4 4 4 3 3
4 4 4 4 4 4 4 4 4 4 4 4 4 4 4 4 4 4 4 4 4 4 4 4 4 4 4 4 4 4 4 4 4 4 4 4 4 4 4 4 4 3 3 3
2 3 3 3 3 3 4 4 4 4 4 4 4 4 4 4 4 4 4 4 4 4 4 4 4 4 4 4 4 4 4 4 4 4 4 4 4 4 4 3 3 3 3 3
2 2 2 2 3 3 3 3 3 3 3 3 3 4 4 4 4 4 4 4 4 4 4 4 4 4 4 5 4 4 4 4 3 3 4 4 4 3 3 3 3 3 3 3
Wind_Speed
84 83 83 85 85 86 82 80 84 70 75 79 81 83 87 87 86 86 85 85 84 82 80 79 79 79 78 77 77 77 76 76 77 77 78 77 75 75 74 74 74 73 73 73
91 90 90 89 86 85 83 84 80 80 76 85 84 85 87 87 86 91 90 87 86 85 85 84 83 82 82 81 79 78 78 82 84 84 84 84 83 83 83 82 81 79 79 80
96 100 103 96 83 88 90 89 90 90 77 89 85 85 88 92 94 93 96 94 91 89 87 86 87 88 87 87 85 84 85 89 91 90 89 89 88 87 88 88 87 87 88 88
99 106 108 86 91 96 97 94 95 95 91 98 96 93 93 98 98 98 98 99 97 94 92 91 91 91 92 92 91 90 91 93 96 96 95 94 94 95 96 95 95 96 97 98
107 108 103 94 93 97 105 99 99 97 95 100 102 101 93 99 103 100 99 99 99 99 99 99 97 97 97 98 98 97 98 100 101 102 102 102 102 103 104 105 105 106 106 106
111 113 111 93 97 107 110 105 104 107 103 106 109 103 102 103 104 104 102 101 102 103 103 103 103 103 103 103 103 103 104 105 106 108 109 110 111 112 114 113 112 112 113 113
111 117 111 105 111 115 117 107 111 112 112 113 112 112 108 110 110 111 110 110 108 107 108 109 110 111 111 111 111 110 110 112 113 115 117 117 117 117 117 117 117 117 117 119
118 122 119 108 116 118 120 115 115 118 119 118 116 117 117 118 118 119 118 117 118 116 114 114 116 116 116 116 117 117 117 117 117 118 118 119 120 120 120 121 122 123 123 125
119 118 116 110 110 111 113 115 117 119 118 118 119 121 122 121 121 121 122 121 121 121 120 121 122 122 123 119 117 117 117 118 119 121 122 123 124 125 126 127 129 130 131 133
125 124 120 117 113 113 113 113 113 114 115 117 119 120 122 122 122 123 124 125 124 122 121 120 120 120 121 121 121 121 122 123 124 126 127 128 130 132 132 135 137 138 141 143
131 129 127 126 123 122 122 121 120 119 119 119 118 119 120 120 121 121 121 121 121 121 121 122 123 124 126 127 129 131 132 133 133 133 135 137 139 140 142 145 147 148 151 152
135 134 133 133 132 130 130 130 130 129 129 128 127 127 127 128 127 127 127 127 128 128 129 129 131 134 135 136 136 137 140 141 141 142 145 147 149 152 153 154 155 158 160 161
138 138 141 141 140 140 140 139 139 139 138 138 136 135 135 136 137 136 136 135 135 135 135 135 137 138 139 141 144 144 146 150 153 154 154 157 160 161 161 160 159 160 161 159
141 142 142 143 143 144 145 146 147 148 148 148 147 147 147 146 146 145 145 144 145 145 145 145 147 148 149 150 152 154 156 156 158 159 159 159 158 157 155 154 152 153 152 147
138 142 143 144 143 143 145 146 148 149 149 148 148 151 152 152 152 152 152 153 153 153 154 154 155 157 157 157 157 159 158 156 155 155 154 151 146 144 141 140 141 138 132 129
131 133 136 136 138 140 143 143 144 144 144 145 144 145 146 146 147 147 146 145 145 148 148 149 151 152 153 153 151 151 151 148 143 142 139 137 136 136 136 133 130 126 124 122
118 123 128 131 131 133 136 136 135 135 135 135 133 132 129 126 125 127 129 130 129 128 129 129 129 129 129 130 132 131 132 131 130 130 131 131 131 129 127 123 121 119 116 115
102 105 108 112 116 117 119 121 123 123 124 123 122 121 121 121 122 120 118 116 116 116 118 118 116 117 118 119 120 121 122 123 123 125 126 126 125 123 122 119 118 116 115 112
96 98 98 98 99 100 101 102 104 106 107 106 106 106 106 106 107 108 108 109 110 109 108 107 106 106 106 106 107 108 110 112 112 113 116 117 117 116 114 112 108 105 104 103
91 91 92 92 92 93 95 95 97 97 98 97 98 98 99 99 99 100 100 101 102 102 102 101 101 100 99 98 99 101 101 101 102 102 101 101 101 99 96 96 95 94 93 93
87 88 89 89 89 89 89 90 90 90 90 90 90 90 91 91 91 92 93 93 94 93 93 94 94 93 92 91 93 93 93 94 95 93 93 92 92 91 91 91 90 89 88 87
83 84 85 86 86 87 87 87 86 85 85 85 85 85 84 83 83 84 85 85 84 84 85 87 87 87 86 86 87 87 87 87 85 85 84 84 84 84 84 84 83 82 80 78
80 81 83 84 84 85 86 85 83 83 82 80 79 78 76 76 77 78 78 79 78 77 79 81 81 82 82 82 82 80 78 77 76 76 76 75 75 75 74 74 73 73 73 72
75 76 77 78 78 79 80 79 79 79 77 75 72 70 70 70 69 71 72 73 73 73 74 75 75 76 76 76 76 74 74 73 72 71 69 68 68 67 67 66 67 67 66 66
66 67 67 68 69 71 72 72 72 72 72 71 69 67 65 64 64 64 66 67 67 67 68 69 71 71 70 70 69 68 67 67 66 65 65 65 63 62 61 61 62 62 60 59
54 54 56 58 61 62 62 63 65 65 66 66 64 61 60 60 60 59 59 59 60 60 61 62 63 63 63 62 61 60 60 60 59 58 58 58 56 56 56 57 55 53 53 53
45 45 47 48 48 49 51 53 56 57 57 58 56 54 54 54 53 52 53 53 53 53 54 55 55 55 55 55 55 54 53 52 51 49 48 49 49 50 48 47 48 47 46 46
Wind_Direction
248 249 250 252 253 255 257 258 257 256 257 260 261 258 257 260 262 264 266 269 272 274 275 274 275 277 277 278 277 277 276 276 275 276 275 275 275 276 276 275 274 274 273 272
248 251 252 250 250 253 255 257 259 256 255 257 254 257 260 261 263 265 267 269 268 270 272 274 275 276 276 275 275 275 275 274 274 275 277 278 278 278 278 277 277 276 274 273
250 251 250 247 250 252 253 255 255 254 252 256 260 260 260 262 265 267 268 268 270 270 270 271 272 272 272 273 273 273 273 274 274 275 276 277 276 276 276 276 276 276 276 276
253 253 253 255 252 254 255 255 258 258 255 258 258 260 261 263 266 266 266 268 270 271 270 270 270 271 272 272 273 274 275 275 276 277 277 277 277 276 276 276 276 276 276 276
252 253 253 251 255 256 254 252 257 259 260 260 262 262 265 265 265 267 268 269 270 271 272 273 272 272 273 273 274 275 275 275 276 277 278 278 278 277 277 277 277 277 276 277
251 252 253 250 252 253 253 253 256 256 256 257 260 261 259 262 264 265 266 267 268 269 270 271 271 272 273 274 274 274 274 275 276 276 276 276 277 277 278 278 278 278 278 278
253 254 255 253 253 252 256 259 256 257 258 259 259 260 261 262 263 265 265 265 266 266 267 268 269 271 272 272 273 274 274 274 275 276 276 277 277 277 277 278 278 278 278 279
252 253 254 252 251 252 254 253 256 257 257 259 261 262 261 261 262 263 264 265 266 267 268 269 270 270 271 272 273 273 274 275 275 276 276 277 277 278 278 278 278 279 279 280
256 256 256 255 254 255 254 255 256 256 256 259 260 260 262 263 263 264 265 266 268 269 270 270 270 270 271 272 272 272 272 273 273 274 275 276 277 278 279 279 280 280 281 281
257 256 258 258 258 258 258 257 257 258 258 259 259 260 261 262 262 263 265 266 268 269 270 270 271 271 271 271 272 272 272 273 274 275 275 276 276 277 277 277 278 280 281 281
256 258 258 259 259 259 259 259 260 260 259 259 259 260 260 260 261 262 263 263 265 266 267 268 268 269 270 272 273 274 274 275 275 275 275 275 276 277 278 279 280 281 281 283
255 254 256 257 258 259 259 260 260 260 260 260 260 259 259 260 261 261 261 262 263 264 265 266 268 269 270 271 272 273 274 275 275 276 277 278 278 278 279 280 281 282 282 283
257 257 257 257 257 257 256 256 256 257 258 259 259 260 260 261 262 262 262 263 263 264 264 265 265 267 268 269 270 272 273 274 275 275 275 275 276 277 278 279 279 280 280 281
259 259 260 260 260 260 260 260 258 257 257 259 260 260 260 261 261 262 262 262 263 264 264 265 266 267 267 268 269 271 272 273 274 275 276 276 276 277 277 278 278 279 280 282
260 261 261 261 261 261 261 261 262 262 262 262 262 262 262 261 262 262 263 263 264 265 265 267 268 269 270 270 271 272 274 275 275 275 275 276 276 276 276 277 278 279 280 281
258 259 260 260 261 262 262 262 263 264 264 265 265 266 266 266 266 267 267 266 266 266 266 267 267 268 270 271 272 272 272 273 273 273 274 275 276 276 278 278 279 280 281 282
255 256 257 259 260 260 261 262 263 264 265 266 267 269 269 268 267 267 267 268 267 267 266 266 267 267 267 267 267 268 269 270 271 271 272 272 273 275 277 278 279 280 280 280
258 257 257 258 259 259 259 260 262 263 264 265 265 265 265 266 267 268 268 267 266 266 266 266 266 265 265 265 265 266 266 267 267 269 270 271 273 275 276 277 278 279 279 278
261 260 261 261 261 262 263 263 264 264 264 264 265 265 265 265 265 265 265 266 267 267 267 266 266 265 264 264 264 264 264 265 266 266 268 268 270 271 271 271 272 272 272 274
266 266 266 265 264 264 264 263 264 264 264 264 265 265 265 264 263 263 263 263 263 264 265 266 266 266 265 264 265 265 265 266 266 266 267 268 269 270 271 271 271 271 272 273
265 265 266 266 266 266 266 266 266 266 266 266 265 265 265 265 265 264 264 264 264 264 264 264 264 264 264 264 264 264 265 266 267 268 269 269 270 270 271 271 272 273 273 274
266 266 266 266 265 266 266 266 267 267 267 266 266 266 265 265 265 264 264 264 264 264 264 265 265 265 265 265 265 265 266 266 267 268 269 270 270 271 271 271 272 274 274 274
265 265 264 265 265 266 267 268 268 268 269 268 268 268 267 266 265 265 265 265 265 264 264 265 265 266 266 267 268 269 270 271 272 272 272 272 273 273 273 273 273 273 274 274
264 263 263 264 265 265 266 267 267 267 269 269 268 267 266 266 265 264 264 263 262 262 262 263 264 265 266 267 268 270 271 271 271 272 272 272 273 273 273 274 274 274 274 274
263 263 264 264 263 263 264 265 265 265 266 266 267 266 265 264 262 261 261 261 260 261 261 262 263 264 266 267 269 270 271 271 271 271 271 271 272 272 272 272 272 273 275 275
261 259 259 258 259 259 260 261 262 262 262 263 264 264 263 263 262 262 261 261 261 261 261 261 263 264 265 267 268 268 268 268 269 269 270 271 272 271 270 270 273 274 273 274
266 264 263 262 261 260 258 258 257 258 259 261 262 262 261 261 261 262 262 262 262 261 261 261 261 262 263 263 263 265 266 267 268 270 270 270 269 269 272 273 273 273 273 274